Location: Carr Mill
(33.2054°N, 85.9439°W)
Time: 23:46:16
(UTC+00:00)

CZ-4B R/B - Pass Details

Date: 29 October 2020
Orbit: 808 x 882 km, 99.1° (Epoch: 28 November)

Event Time Altitude Azimuth Distance (km) Brightness Sun altitude
Rises 23:24:41 0° 172° (S) 3,457 6.4 -7.0°
Reaches altitude 10° 23:27:05 10° 175° (S) 2,517 5.8 -7.5°
Maximum altitude 23:32:39 67° 257° (WSW) 934 3.7 -8.6°
Drops below altitude 10° 23:38:10 10° 341° (NNW) 2,490 5.8 -9.7°
Sets 23:40:33 0° 344° (NNW) 3,418 6.4 -10.2°
